Regional Weather Roundup
Issued by NWS Albany, NY

Home | Current Version | Previous Version | Text Only | Print | Product List | Glossary On
Versions: 1 2 3 4 5 6 7 8 9 10 11 12 13 14 15 16 17 18 19 20 21 22 23 24 25 26 27
000
ASUS41 KALY 240810
RWRALY

NEW YORK STATE HOURLY WEATHER ROUNDUP
NATIONAL WEATHER SERVICE ALBANY NY
400 AM EDT THU APR 24 2014

NOTE: "FAIR" INDICATES FEW OR NO CLOUDS BELOW 12,000 FEET WITH NO
SIGNIFICANT WEATHER AND/OR NO OBSTRUCTIONS TO VISIBILITY.

NYZ032-033-038>043-046>054-057>066-NYZ062>081-240900-
EAST


CITY           SKY/WX    TMP DP  RH WIND       PRES   REMARKS
ALBANY         CLEAR     38  20  48 NW15      29.84R WCI  29
GLENS FALLS    CLEAR     41  14  33 NW9G20    29.82R
POUGHKEEPSIE   CLEAR     42  23  46 NW9       29.82R
NEWBURGH       CLEAR     39  27  60 MISG      29.84R
MONTGOMERY     CLEAR     40  24  53 NW12      29.83S WCI  33
WHITE PLAINS   CLEAR     41  28  60 NW17      29.80R
ISLIP          CLEAR     43  29  57 NW17      29.77S
NEW YORK CITY  CLEAR     44  26  49 NW14      29.84R
CENTRAL PARK   CLEAR     44  25  47 VRB3      29.86S
$$

NYZ005>009-017-018-044>046-055-056-240900-
CENTRAL


CITY           SKY/WX    TMP DP  RH WIND       PRES   REMARKS
FULTON         CLEAR     38  19  46 NW13      29.99R WCI  30
SYRACUSE       CLEAR     36  20  52 NW8       29.98R WCI  30
ROME           CLEAR     32  21  64 W8        29.96R WCI  25
ELMIRA         CLEAR     37  16  42 W5        29.99S WCI  33
BINGHAMTON     CLEAR     32  21  64 NW9       29.92R WCI  24
MONTICELLO     CLEAR     34  19  55 NW16G23   29.85S WCI  23
$$

NYZ026>034-041>043-240900-
NORTH


CITY           SKY/WX    TMP DP  RH WIND       PRES   REMARKS
WATERTOWN      CLEAR     34  16  47 W6        29.99R WCI  29
FORT DRUM      NOT AVBL
MASSENA        CLEAR     35  18  49 NW12      29.93R WCI  27
SARANAC LAKE   CLEAR     30  13  49 VRB6      29.81S WCI  24
PLATTSBURGH    CLEAR     36  17  46 NW10G22   29.83R WCI  28
$$

NYZ001>004-010>016-019>021-240900-
WEST


CITY           SKY/WX    TMP DP  RH WIND       PRES   REMARKS
NIAGARA FALLS  CLEAR     32  21  64 NW6       30.07S WCI  26
BUFFALO        CLEAR     33  22  63 NW6       30.07R WCI  28
DUNKIRK        CLEAR     27  21  78 S6        30.10S WCI  20
JAMESTOWN      CLEAR     30  18  59 NW8       30.05S WCI  23
WELLSVILLE     CLEAR     31  15  52 NW10      30.00S WCI  22
ROCHESTER      CLEAR     35  23  61 W6        30.05R WCI  30
PENN YAN       CLEAR     35  21  56 NW10      30.00S WCI  27
$$

             KEY
       WCI = WIND CHILL INDEX
       VSB = VISIBILITY
       HX  = HEAT INDEX
$$



USA.gov is the U.S. government's official web portal to all federal, state and local government web resources and services.